Showing default

FLOCK 4H 10, 66713

Orbit data source: Space-Track

FLOCK 4H 10, 66713 is a payload satellite owned by Planet (US) in SSO that was launched on Fri, 28 Nov 2025 UTC via an FALCON 9 launch vehicle from the Air Force Western Test Range (AFWTR). Payload-class satellites include a variety of spacecraft equipped with specific instruments for various scientific and technological missions. These include communications satellites like Starlink; space stations such as the ISS; scientific satellites like the Hubble; Earth observation satellites from companies like Planet Labs, Umbra, and HawkEye 360; GPS; miniature CubeSats for education and research; and military/defense satellites.

Loading next visibility...
Identifier
66713, 2025-276AZ
Orbit
SSO
Country
Flag of USUS
Related business
Manufacturer
Planet
Mission
Operational Commercial Imaging
Bus & Motor
CUBESAT 3U, Unknown motor
Mass
5.7 kg wet, 5.7 kg dry
Launch date (UTC)
2025-11-28 (2 months ago)
Launch vehicle
FALCON 9
Launch site
Air Force Western Test Range (AFWTR)
Object type
Payload
Rocket body
Debris
Shape & HBR
Box + 2 Pan, 1.0 m
Radar Cross Section
0.072 m²

Expand to show TLE details & history
Last TLE update: 1 day ago

TLE from 1 day ago
0 FLOCK 4H 10
1 66713U 25276AZ  26034.16127662  .00008074  00000-0  40002-3 0  9999
2 66713  97.4328 109.9813 0005954 108.2729 251.9153 15.18005387 10073
Epoch: 2026-02-03T03:52Z
TLE epoch observation values (Epoch: 2026-02-03T03:52:14.299Z)
Latitude
-0.00008°
Longitude
-81.42445°
Altitude
516.232 km
Speed
7.605 km/s
True Right ascension
07h 19m 55s
True Declination
0° 00' 00"
Sunlit
Object was in full shadow at epoch
Visualization orbit readout
Latitude
Unknown
Longitude
Unknown
Altitude
Unknown
Speed
Unknown
Apparent Right ascension
Unknown
Apparent Declination
Unknown
Sunlit
N/A
Visualization observer readout
Local Sidereal Time
07:05:31
Azimuth
Unknown
Elevation
Unknown
Doppler factor
Unknown
Orbital elements
Apogee altitude
512.94 km
Perigee altitude
504.739 km
Semi-major axis
6,886.976 km
Eccentricity
0.0006
Inclination
97.4328°
RAAN
109.9813°
Arg. of periapsis
108.2729°
True anomaly
251.85046°
Mean anomaly
251.9153°
Eccentric anomaly
251.88288°
Mean motion
3.79752 °/min
Orbital period
94.8 mins
BSTAR
0.00040002
Loading maneuver chart data...
Computing Atmospheric mass density...
Loading historical data...
Loading historical data...
Loading historical data...
Loading historical data...
Loading historical data...
Loading historical data...
Loading historical data...

Documentation

Showing up to 5 results
|